Sigfox identifier Datetime Temperature Humidity SNR
003AB632 2019-04-23 14:42:56 16.7 30 20.3
003AB632 2019-04-23 14:08:57 16.5 30 19.8
003AB632 2019-04-23 13:34:58 16.5 30 19.3
003AB632 2019-04-23 13:00:58 16.3 30 18.9
003AB632 2019-04-23 12:26:57 16.3 30 18.7
003AB632 2019-04-23 11:52:57 16.1 30 18.7
003AB632 2019-04-23 11:18:56 16.1 30 18.5
003AB632 2019-04-23 10:44:56 15.9 30 17.8
003AB632 2019-04-23 10:10:55 15.9 30 17.7
003AB632 2019-04-23 09:36:56 15.9 30 17
003AB632 2019-04-23 09:02:55 15.9 30 16.3
003AB632 2019-04-23 08:28:54 15.9 30 15.3
003AB632 2019-04-23 07:54:53 15.9 30 13.8
003AB632 2019-04-23 07:20:52 15.9 30 13.5
003AB632 2019-04-23 06:46:53 15.9 30 13.4
003AB632 2019-04-23 06:12:57 15.7 30 13.5
003AB632 2019-04-23 05:38:52 15.7 30 13.5
003AB632 2019-04-23 05:04:53 15.7 30 13.6
003AB632 2019-04-23 04:30:53 15.7 30 13.7
003AB632 2019-04-23 03:56:53 15.7 30 13.8
003AB632 2019-04-23 03:22:52 15.7 30 14
003AB632 2019-04-23 02:48:53 15.7 30 14.1
003AB632 2019-04-23 02:14:52 15.7 30 14.2
003AB632 2019-04-23 01:40:52 15.7 30 14.4
003AB632 2019-04-23 01:06:54 15.7 30 14.6
003AB632 2019-04-23 00:32:50 15.7 30 14.7
003AB632 2019-04-22 23:58:50 15.9 30 14.7
003AB632 2019-04-22 23:24:51 15.9 30 14.7
003AB632 2019-04-22 22:50:53 15.8 30 14.6
003AB632 2019-04-22 22:16:51 15.8 30 14.4
003AB632 2019-04-22 21:42:52 15.9 30 14
003AB632 2019-04-22 21:08:53 15.9 30 14
003AB632 2019-04-22 20:34:54 16 30 14.1
003AB632 2019-04-22 20:00:55 16.1 30 14.1
003AB632 2019-04-22 19:26:56 16.1 30 14.2
003AB632 2019-04-22 18:52:54 16.1 29 14.3
003AB632 2019-04-22 18:18:54 16.2 29 14.3
003AB632 2019-04-22 17:44:53 16.3 29 14.2
003AB632 2019-04-22 17:10:54 16.3 29 14
003AB632 2019-04-22 16:36:52 16.1 29 13.9
003AB632 2019-04-22 16:02:52 16.1 29 13.7
003AB632 2019-04-22 15:28:53 16.1 29 13.7
003AB632 2019-04-22 14:54:52 16.1 29 13.6
003AB632 2019-04-22 14:20:50 16.1 29 13.4
003AB632 2019-04-22 13:46:49 16.1 29 13.3
003AB632 2019-04-22 13:12:48 15.9 29 13.1
003AB632 2019-04-22 12:38:47 15.9 29 13.1
003AB632 2019-04-22 12:04:47 15.9 29 13
003AB632 2019-04-22 11:30:45 15.9 29 12.9
003AB632 2019-04-22 10:56:43 15.9 29 12.7
003AB632 2019-04-22 10:22:42 15.9 29 12.5
003AB632 2019-04-22 09:48:42 15.7 29 12.5
003AB632 2019-04-22 09:14:41 15.8 29 12.6
003AB632 2019-04-22 08:40:42 15.9 29 12.8
003AB632 2019-04-22 08:06:44 15.8 29 12.8
003AB632 2019-04-22 07:32:40 15.9 29 12.9
003AB632 2019-04-22 06:58:41 15.9 29 12.6
003AB632 2019-04-22 06:24:42 15.9 29 12.4
003AB632 2019-04-22 05:50:43 15.9 29 12.4
003AB632 2019-04-22 05:16:44 15.9 29 12.2
003AB632 2019-04-22 04:42:43 15.7 29 12
003AB632 2019-04-22 04:08:43 15.9 29 12.3
003AB632 2019-04-22 03:34:40 15.7 29 12.3
003AB632 2019-04-22 03:00:39 15.9 29 12.2
003AB632 2019-04-22 02:26:38 15.7 29 12.5
003AB632 2019-04-22 01:52:37 15.7 29 12.6
003AB632 2019-04-22 01:18:36 15.8 29 12.4
003AB632 2019-04-22 00:44:36 15.7 29 12.5
003AB632 2019-04-22 00:10:34 15.7 29 12.5
003AB632 2019-04-21 23:36:34 15.7 29 12.5
003AB632 2019-04-21 23:02:33 15.7 29 12.8
003AB632 2019-04-21 21:54:33 15.7 29 12.9
003AB632 2019-04-21 21:20:31 15.7 29 12.8
003AB632 2019-04-21 20:46:31 15.7 29 12.7
003AB632 2019-04-21 20:12:32 15.7 29 13
003AB632 2019-04-21 19:38:33 15.7 29 13.4
003AB632 2019-04-21 19:04:33 15.7 29 13.5
003AB632 2019-04-21 18:30:33 15.7 29 13.4
003AB632 2019-04-21 17:56:33 15.7 29 13.3
003AB632 2019-04-21 17:22:36 15.6 28 13.5
003AB632 2019-04-21 16:48:35 15.6 28 13.4
003AB632 2019-04-21 16:14:35 15.5 28 13.6
003AB632 2019-04-21 15:40:36 15.6 28 13.6
003AB632 2019-04-21 15:06:36 15.5 28 13.6
003AB632 2019-04-21 14:32:34 15.5 28 13.7
003AB632 2019-04-21 13:58:33 15.5 28 13.7
003AB632 2019-04-21 13:24:31 15.5 28 13.4
003AB632 2019-04-21 12:50:31 15.5 28 13.3
003AB632 2019-04-21 12:16:34 15.5 28 13.3
003AB632 2019-04-21 11:42:29 15.5 28 13.1
003AB632 2019-04-21 11:08:30 15.5 28 13
003AB632 2019-04-21 10:34:30 15.5 28 13
003AB632 2019-04-21 10:00:31 15.5 28 12.9
003AB632 2019-04-21 09:26:33 15.7 28 12.9
003AB632 2019-04-21 08:52:37 15.7 28 12.9
003AB632 2019-04-21 08:18:33 15.9 28 12.6
003AB632 2019-04-21 07:44:31 15.9 28 12.5
003AB632 2019-04-21 07:10:31 15.9 28 12.5
003AB632 2019-04-21 06:36:31 15.8 28 12.7
003AB632 2019-04-21 06:02:31 15.9 28 12.3
003AB632 2019-04-21 05:28:32 15.7 28 11.7
003AB632 2019-04-21 04:54:30 15.9 28 11.6
003AB632 2019-04-21 04:20:28 15.8 28 11.6
003AB632 2019-04-21 03:46:29 15.9 28 11.7
003AB632 2019-04-21 03:12:29 15.7 28 11.4
003AB632 2019-04-21 02:38:29 15.7 28 12.2
003AB632 2019-04-21 02:04:29 15.7 28 17.4
003AB632 2019-04-21 01:30:30 15.7 28 17.5
003AB632 2019-04-21 00:56:33 15.7 28 17.5
003AB632 2019-04-21 00:22:33 15.7 28 17.5
003AB632 2019-04-20 23:48:31 15.7 28 17.5
003AB632 2019-04-20 23:14:31 15.6 28 17.6
003AB632 2019-04-20 22:40:35 15.7 28 17.8
003AB632 2019-04-20 21:32:35 15.7 28 17.9
003AB632 2019-04-20 20:58:36 15.7 28 20
003AB632 2019-04-20 20:24:36 15.7 28 21.5
003AB632 2019-04-20 19:50:38 15.7 28 21.5
003AB632 2019-04-20 19:16:34 15.7 27 21.5
003AB632 2019-04-20 18:42:35 15.7 27 21.5
003AB632 2019-04-20 18:08:32 15.7 27 21.5
003AB632 2019-04-20 17:34:29 15.7 27 21.5
003AB632 2019-04-20 17:00:29 15.7 27 21.5
003AB632 2019-04-20 16:26:29 15.7 27 21.5
003AB632 2019-04-20 15:52:31 15.7 27 21.5
003AB632 2019-04-20 15:18:29 15.7 27 21.5
003AB632 2019-04-20 14:44:29 15.6 27 21.5
003AB632 2019-04-20 14:10:28 15.5 27 21.5
003AB632 2019-04-20 13:36:26 15.6 27 21.5
003AB632 2019-04-20 13:02:25 15.7 27 21.4
003AB632 2019-04-20 12:28:26 15.7 27 21.5
003AB632 2019-04-20 11:54:25 15.7 27 21.4
003AB632 2019-04-20 11:20:26 15.7 27 20
003AB632 2019-04-20 10:46:26 15.7 27 20
003AB632 2019-04-20 10:12:26 15.7 27 20
003AB632 2019-04-20 09:38:28 15.7 27 20.1
003AB632 2019-04-20 09:04:29 15.7 27 20.1
003AB632 2019-04-20 08:30:29 15.7 27 20.1
003AB632 2019-04-20 07:56:30 15.9 27 20.1
003AB632 2019-04-20 07:22:31 15.9 27 20.1
003AB632 2019-04-20 06:48:31 15.9 27 18.1
003AB632 2019-04-20 06:14:31 15.8 27 14
003AB632 2019-04-20 05:40:32 15.9 27 14.3
003AB632 2019-04-20 05:06:33 15.9 27 14.5
003AB632 2019-04-20 04:32:35 15.7 27 15
003AB632 2019-04-20 03:58:35 15.7 27 15.2
003AB632 2019-04-20 03:24:37 15.8 27 15.5
003AB632 2019-04-20 02:50:37 15.9 27 15.6
003AB632 2019-04-20 01:42:41 15.9 27 15.7
003AB632 2019-04-20 01:08:40 15.9 27 15.9
003AB632 2019-04-20 00:34:40 16 27 16
003AB632 2019-04-20 00:00:39 16.1 26 16.1
003AB632 2019-04-19 23:26:39 16.1 26 16.3
003AB632 2019-04-19 22:52:38 16.1 26 16.4
003AB632 2019-04-19 22:18:41 16.1 26 16.6
003AB632 2019-04-19 21:44:38 16.1 26 16.8
003AB632 2019-04-19 21:10:39 16.2 26 16.6
003AB632 2019-04-19 20:36:40 16.2 26 16.6
003AB632 2019-04-19 20:02:40 16.3 26 16.6
003AB632 2019-04-19 19:28:40 16.3 26 16.7
003AB632 2019-04-19 18:54:40 16.3 26 16.6
003AB632 2019-04-19 18:20:40 16.4 26 16.8
003AB632 2019-04-19 17:46:41 16.4 26 16.7
003AB632 2019-04-19 17:12:41 16.4 26 16.7
003AB632 2019-04-19 16:38:42 16.3 26 16.8
003AB632 2019-04-19 16:04:43 16.3 26 16.7
003AB632 2019-04-19 15:30:43 16.3 26 16.7
003AB632 2019-04-19 14:56:42 16.3 26 16.6
003AB632 2019-04-19 14:22:41 16.2 26 16.4
003AB632 2019-04-19 13:48:39 16.1 26 16.2
003AB632 2019-04-19 13:14:38 16.1 26 16
003AB632 2019-04-19 12:40:36 16.1 26 15.7
003AB632 2019-04-19 12:06:35 16 26 15.6
003AB632 2019-04-19 11:32:34 16.1 26 15.5
003AB632 2019-04-19 10:58:35 16 26 15.3
003AB632 2019-04-19 10:24:34 15.9 26 18.6
003AB632 2019-04-19 09:50:33 15.9 26 18.9
003AB632 2019-04-19 09:16:32 15.9 26 18.9
003AB632 2019-04-19 08:42:32 15.9 26 18.9
003AB632 2019-04-19 08:08:29 15.9 26 19.3
003AB632 2019-04-19 07:34:28 15.9 26 19.5
003AB632 2019-04-19 07:00:31 15.9 26 19.9
003AB632 2019-04-19 06:26:28 15.9 26 19.9
003AB632 2019-04-19 05:52:29 15.9 25 20
003AB632 2019-04-19 05:18:29 16.1 25 20.2
003AB632 2019-04-19 04:44:30 15.9 26 20.1
003AB632 2019-04-19 04:10:30 15.9 25 20.1
003AB632 2019-04-19 03:36:31 16.1 25 20.2
003AB632 2019-04-19 03:02:30 16.1 25 20.5
003AB632 2019-04-19 02:28:29 16 25 20.8
003AB632 2019-04-19 01:54:29 16.1 25 20.9
003AB632 2019-04-19 01:20:30 16.1 25 21.1
003AB632 2019-04-19 00:46:32 16.2 25 21.2
003AB632 2019-04-19 00:12:29 16.3 25 21.5
003AB632 2019-04-18 23:38:27 16.3 25 21.7
003AB632 2019-04-18 23:04:26 16.5 25 21.8
003AB632 2019-04-18 21:56:28 16.6 25 21.9
003AB632 2019-04-18 21:22:30 16.7 25 22
003AB632 2019-04-18 20:48:29 16.7 25 22
003AB632 2019-04-18 20:14:31 16.7 25 22.1
003AB632 2019-04-18 19:40:29 16.8 25 21
003AB632 2019-04-18 19:06:30 16.8 25 20.8
003AB632 2019-04-18 18:32:30 16.8 25 20.9
003AB632 2019-04-18 17:58:29 16.8 25 20.9
003AB632 2019-04-18 17:24:29 16.8 25 21.9
003AB632 2019-04-18 16:50:29 16.8 25 21.7
003AB632 2019-04-18 16:16:31 16.8 25 21.7
003AB632 2019-04-18 15:42:32 16.7 25 21.7
003AB632 2019-04-18 15:08:33 16.5 25 21.6
003AB632 2019-04-18 14:34:37 16.5 25 21.6
003AB632 2019-04-18 14:00:35 16.4 25 21.6
003AB632 2019-04-18 13:26:36 16.3 25 21.6
003AB632 2019-04-18 12:52:36 16.3 25 21.7
003AB632 2019-04-18 12:18:38 16.3 24 21.7
003AB632 2019-04-18 11:44:38 16.3 24 21.8
003AB632 2019-04-18 11:10:39 16.3 24 21.9
003AB632 2019-04-18 10:36:40 16.3 24 22.1
003AB632 2019-04-18 10:02:42 16.2 24 22
003AB632 2019-04-18 09:28:43 16.1 24 21.9
003AB632 2019-04-18 08:54:43 16.1 24 22
003AB632 2019-04-18 08:20:44 16.3 24 22.1
003AB632 2019-04-18 07:46:45 16.3 24 22.2
003AB632 2019-04-18 07:12:46 16.3 24 22.4
003AB632 2019-04-18 06:38:46 16.3 24 22.4
003AB632 2019-04-18 06:04:45 16.1 24 22.6
003AB632 2019-04-18 05:30:44 16.1 24 22.7
003AB632 2019-04-18 04:56:43 16.1 24 22.8
003AB632 2019-04-18 04:22:43 16.1 24 22.8
003AB632 2019-04-18 03:48:43 16.1 24 22.7
003AB632 2019-04-18 03:14:43 16.1 24 21.7
003AB632 2019-04-18 02:40:43 16.1 24 21.7
003AB632 2019-04-18 02:06:42 16.1 24 21.6
003AB632 2019-04-18 01:32:41 16.3 24 21.7
003AB632 2019-04-18 00:58:40 16.3 24 21.7
003AB632 2019-04-18 00:24:40 16.5 24 21.7
003AB632 2019-04-17 23:50:38 16.7 24 21.6
003AB632 2019-04-17 23:16:38 16.7 24 21.7
003AB632 2019-04-17 22:42:39 16.8 24 21.6
003AB632 2019-04-17 22:08:40 16.8 24 22.4
003AB632 2019-04-17 21:34:41 16.8 24 23.1
003AB632 2019-04-17 21:00:40 16.7 24 22.9
003AB632 2019-04-17 20:26:41 16.6 23 22.8
003AB632 2019-04-17 19:52:42 16.7 23 23.5
003AB632 2019-04-17 19:18:42 16.6 23 23.5
003AB632 2019-04-17 18:44:43 16.6 23 23.3
003AB632 2019-04-17 18:10:42 16.6 23 23.2
003AB632 2019-04-17 17:36:41 16.5 23 23.1
003AB632 2019-04-17 17:02:40 16.5 23 22.9
003AB632 2019-04-17 16:28:39 16.5 23 23
003AB632 2019-04-17 15:54:39 16.5 23 22.7
003AB632 2019-04-17 15:20:38 16.4 23 22.8
003AB632 2019-04-17 14:46:37 16.5 23 22.7
003AB632 2019-04-17 14:12:35 16.5 23 22.6
003AB632 2019-04-17 13:38:34 16.8 23 22.7
003AB632 2019-04-17 13:04:33 17.1 23 22.7
003AB632 2019-04-17 12:30:34 17 23 22.7
003AB632 2019-04-17 11:56:34 16.9 23 22.8
003AB632 2019-04-17 11:22:36 16.8 23 22.7
003AB632 2019-04-17 10:48:36 16.8 23 22.7
003AB632 2019-04-17 10:14:36 16.7 23 22.7
003AB632 2019-04-17 09:40:36 16.7 23 22.8
003AB632 2019-04-17 09:06:38 16.7 23 22.7
003AB632 2019-04-17 08:32:39 16.8 22 22.8
003AB632 2019-04-17 07:58:39 17 22 21.8
003AB632 2019-04-17 07:24:37 17.1 22 20.6
003AB632 2019-04-17 06:50:35 17.2 22 20.6
003AB632 2019-04-17 06:16:34 17.4 22 20.7
003AB632 2019-04-17 05:42:35 17.4 22 19.2
003AB632 2019-04-17 05:08:35 17.4 22 19.1
003AB632 2019-04-17 04:34:35 17.5 22 18.9
003AB632 2019-04-17 04:00:34 17.6 22 18.9
003AB632 2019-04-17 03:26:34 17.6 22 18.8
003AB632 2019-04-17 02:52:33 17.8 22 18.7
003AB632 2019-04-17 02:18:32 17.8 22 18.6
003AB632 2019-04-17 01:44:30 17.8 22 18.6
003AB632 2019-04-17 01:10:29 17.8 22 18.6
003AB632 2019-04-17 00:36:30 17.8 22 18.4
003AB632 2019-04-17 00:02:30 17.8 22 18.3
003AB632 2019-04-16 23:28:28 17.6 22 18.1
003AB632 2019-04-16 22:54:28 17.4 22 18
003AB632 2019-04-16 22:20:28 17.8 21 17.9
003AB632 2019-04-16 21:46:27 18.2 21 17.6
003AB632 2019-04-16 21:12:26 18.4 21 17.6
003AB632 2019-04-16 20:38:25 18.7 21 17.3
003AB632 2019-04-16 20:04:26 18.7 21 17.1
003AB632 2019-04-16 19:30:26 18.8 21 16.9
003AB632 2019-04-16 18:56:26 18.7 21 16.8
003AB632 2019-04-16 18:22:26 18.7 21 16.5
003AB632 2019-04-16 17:48:24 18.8 21 16.2
003AB632 2019-04-16 16:40:22 19.1 21 16
003AB632 2019-04-16 16:06:22 19.2 21 15.8
003AB632 2019-04-16 15:32:21 19.4 21 15.1
003AB632 2019-04-16 14:58:21 19.8 20 14.2
003AB632 2019-04-16 13:50:18 21.2 20 14
003AB632 2019-04-16 13:16:18 21.2 20 14.3
003AB632 2019-04-16 12:42:23 21.2 20 14.2
003AB632 2019-04-16 12:08:18 21.2 20 13.9
003AB632 2019-04-16 11:34:18 21.2 20 14.3
003AB632 2019-04-16 11:00:20 21.1 20 14.2
003AB632 2019-04-16 10:26:20 21.1 20 14.3
003AB632 2019-04-16 09:18:15 21.1 20 13.5
003AB632 2019-04-16 08:44:15 21.1 20 14
003AB632 2019-04-16 08:10:14 21.1 20 14.1
003AB632 2019-04-16 07:36:17 21 20 14
003AB632 2019-04-16 07:02:13 21 20 14.1
003AB632 2019-04-16 06:28:12 21.1 20 14.3
003AB632 2019-04-16 05:54:13 21 20 14.3
003AB632 2019-04-16 05:20:14 21.1 20 14.3
003AB632 2019-04-16 04:46:09 21.1 20 14.1
003AB632 2019-04-16 04:12:07 21.2 20 14.3
003AB632 2019-04-16 03:38:04 21.2 20 14.3
003AB632 2019-04-16 03:04:03 21.2 20 14.9
003AB632 2019-04-16 02:30:01 21.2 20 15.4
003AB632 2019-04-16 01:56:01 21.2 20 16
003AB632 2019-04-16 01:22:00 21.2 20 16.4
003AB632 2019-04-16 00:47:59 21.2 20 17.2
003AB632 2019-04-16 00:13:57 21.2 19 17.7
003AB632 2019-04-15 23:39:56 21.3 19 18.1
003AB632 2019-04-15 23:05:56 21.2 19 18.5
003AB632 2019-04-15 22:31:53 21.2 19 18.8
003AB632 2019-04-15 21:57:51 21.2 19 19.4
003AB632 2019-04-15 21:23:50 21.2 19 19.7
003AB632 2019-04-15 20:49:48 21.3 19 21.2
003AB632 2019-04-15 20:15:46 21.3 19 21.4
003AB632 2019-04-15 19:41:45 21.2 19 21.6
003AB632 2019-04-15 19:07:44 21.2 19 21.8
003AB632 2019-04-15 18:33:45 21.2 19 22
003AB632 2019-04-15 17:59:44 21.3 19 22.1
003AB632 2019-04-15 17:25:44 21.3 19 22.3
003AB632 2019-04-15 16:17:47 21.4 18 22.5
003AB632 2019-04-15 15:43:44 21.5 18 22.7
003AB632 2019-04-15 15:09:44 21.7 18 22.9
003AB632 2019-04-15 14:35:47 21.7 18 23.1
003AB632 2019-04-15 14:01:47 21.7 18 23.3
003AB632 2019-04-15 13:27:48 21.9 18 23.5
003AB632 2019-04-15 12:53:47 22.1 17 23.6
003AB632 2019-04-15 12:19:47 22.3 17 23.6
003AB632 2019-04-15 11:45:46 22.2 16 23.7
003AB632 2019-04-15 11:11:47 22.1 16 23.8
003AB632 2019-04-15 10:37:47 22.1 16 23.8
003AB632 2019-04-15 10:03:48 22.1 17 23.8
003AB632 2019-04-15 09:29:48 22.1 17 23.8
003AB632 2019-04-15 08:55:45 21.9 17 23.8
003AB632 2019-04-15 08:21:45 21.9 17 24
003AB632 2019-04-15 07:47:44 21.9 17 24
003AB632 2019-04-15 07:13:43 21.9 17 24
003AB632 2019-04-15 06:39:41 21.9 17 23.9
003AB632 2019-04-15 06:05:41 21.9 17 23.3
003AB632 2019-04-15 05:31:40 21.8 17 23.3
003AB632 2019-04-15 04:57:40 21.8 17 23.2
003AB632 2019-04-15 04:23:40 21.9 17 23.2
003AB632 2019-04-15 03:49:39 21.8 17 23.2
003AB632 2019-04-15 03:15:38 21.8 18 23.2
003AB632 2019-04-15 02:41:36 21.8 18 23.1
003AB632 2019-04-15 02:07:35 21.8 18 23
003AB632 2019-04-15 01:33:33 21.8 18 23
003AB632 2019-04-15 00:59:31 21.8 18 22.9
003AB632 2019-04-15 00:25:29 21.8 18 22.7
003AB632 2019-04-14 23:51:29 21.8 18 22.8
003AB632 2019-04-14 23:17:28 21.8 18 23.4
003AB632 2019-04-14 22:43:28 21.9 18 23.5
003AB632 2019-04-14 22:09:28 21.9 18 23.7
003AB632 2019-04-14 21:35:28 21.9 18 23.6
003AB632 2019-04-14 21:01:27 21.9 18 23.6
003AB632 2019-04-14 20:27:27 21.9 18 23.6
003AB632 2019-04-14 19:53:26 22 18 23.6
003AB632 2019-04-14 19:19:25 21.9 18 23.7
003AB632 2019-04-14 18:45:24 21.9 18 23.7
003AB632 2019-04-14 18:11:23 21.9 18 23.5
003AB632 2019-04-14 17:37:23 21.9 18 23.5
003AB632 2019-04-14 17:03:23 21.9 18 23.5
003AB632 2019-04-14 16:29:22 21.9 18 23.4
003AB632 2019-04-14 15:55:22 21.9 18 23.5
003AB632 2019-04-14 15:21:22 21.9 18 23.6
003AB632 2019-04-14 14:47:21 21.9 18 23.6
003AB632 2019-04-14 14:13:20 21.9 18 23.6
003AB632 2019-04-14 13:39:20 21.9 18 23.6
003AB632 2019-04-14 13:05:19 21.9 18 23.6
003AB632 2019-04-14 12:31:20 21.9 19 23.7
003AB632 2019-04-14 11:57:20 21.9 19 23.7
003AB632 2019-04-14 11:23:22 21.9 19 23.8
003AB632 2019-04-14 10:49:21 21.9 19 23.7
003AB632 2019-04-14 10:15:21 21.9 19 23.7
003AB632 2019-04-14 09:41:21 21.9 18 23.7
003AB632 2019-04-14 09:07:20 21.9 18 23.1
003AB632 2019-04-14 08:33:20 21.9 18 23
003AB632 2019-04-14 07:59:20 21.9 18 23
003AB632 2019-04-14 07:25:20 21.9 18 23
003AB632 2019-04-14 06:51:19 21.9 18 23
003AB632 2019-04-14 06:17:16 21.9 18 23
003AB632 2019-04-14 05:43:16 21.9 18 23
003AB632 2019-04-14 05:09:16 21.9 18 22.8
003AB632 2019-04-14 04:35:14 21.9 18 22.9
003AB632 2019-04-14 04:01:14 21.9 18 22.8
003AB632 2019-04-14 03:27:13 21.9 18 22.8
003AB632 2019-04-14 02:53:13 21.9 18 22.8
003AB632 2019-04-14 02:19:12 21.9 18 22.8
003AB632 2019-04-14 01:45:10 21.9 18 22.7
003AB632 2019-04-14 01:11:10 21.9 18 22.6
003AB632 2019-04-14 00:37:10 22 18 22.6
003AB632 2019-04-14 00:03:11 22.1 18 22.6
003AB632 2019-04-13 23:29:10 22.1 18 22.6
003AB632 2019-04-13 22:55:09 22.1 18 22.5
003AB632 2019-04-13 22:21:09 22.1 18 22.5
003AB632 2019-04-13 21:47:08 22.1 18 22.4
003AB632 2019-04-13 21:13:08 22.1 18 22.5
003AB632 2019-04-13 20:39:07 22.1 18 22.6
003AB632 2019-04-13 20:05:06 22.1 18 22.6
003AB632 2019-04-13 19:31:05 22.1 18 22.4
003AB632 2019-04-13 18:57:02 22.1 18 22.5
003AB632 2019-04-13 18:23:01 22.2 18 22.5
003AB632 2019-04-13 17:49:00 22.2 18 22.3
003AB632 2019-04-13 17:14:59 22.2 18 22.5
003AB632 2019-04-13 16:40:57 22.3 18 22.6
003AB632 2019-04-13 16:06:57 22.3 18 22.6
003AB632 2019-04-13 15:32:56 22.3 18 22.7
003AB632 2019-04-13 14:58:54 22.3 18 22.7
003AB632 2019-04-13 14:24:54 22.3 18 22.6
003AB632 2019-04-13 13:50:53 22.3 18 22.6
003AB632 2019-04-13 13:16:52 22.3 18 22.6
003AB632 2019-04-13 12:42:51 22.3 18 22.6
003AB632 2019-04-13 12:08:49 22.3 18 22.7
003AB632 2019-04-13 11:34:48 22.3 18 22.6
003AB632 2019-04-13 11:00:47 22.3 18 22.6
003AB632 2019-04-13 10:26:46 22.3 18 22.7
003AB632 2019-04-13 09:52:43 22.3 18 22.7
003AB632 2019-04-13 09:18:41 22.3 18 22.7
003AB632 2019-04-13 08:44:40 22.3 18 22.8
003AB632 2019-04-13 08:10:39 22.3 18 22.8
003AB632 2019-04-13 07:36:37 22.3 18 22.9
003AB632 2019-04-13 07:02:36 22.3 18 22.7
003AB632 2019-04-13 06:28:35 22.3 18 22.7
003AB632 2019-04-13 05:54:32 22.3 18 22.7
003AB632 2019-04-13 05:20:31 22.3 18 22.7
003AB632 2019-04-13 04:46:30 22.3 18 23.3
003AB632 2019-04-13 04:12:28 22.3 18 23.9
003AB632 2019-04-13 03:38:26 22.3 18 23.8
003AB632 2019-04-13 03:04:24 22.4 18 23.6
003AB632 2019-04-13 02:30:21 22.4 19 23.6
003AB632 2019-04-13 01:56:19 22.5 19 23.6
003AB632 2019-04-13 01:22:15 22.5 19 23.6
003AB632 2019-04-13 00:48:12 22.5 19 23.6
003AB632 2019-04-13 00:14:08 22.5 19 23.7
003AB632 2019-04-12 23:40:05 22.5 19 23.8
003AB632 2019-04-12 23:06:03 22.7 19 23.9
003AB632 2019-04-12 22:32:01 22.7 19 24
003AB632 2019-04-12 21:57:58 22.7 20 24
003AB632 2019-04-12 21:23:55 22.7 20 24.2
003AB632 2019-04-12 20:49:52 22.7 19 24.3
003AB632 2019-04-12 20:15:48 22.7 19 24.4
003AB632 2019-04-12 19:41:46 22.7 19 24.5
003AB632 2019-04-12 19:07:44 22.8 18 24.6
003AB632 2019-04-12 18:33:42 22.9 17 24.7
003AB632 2019-04-12 17:59:39 22.9 17 24.9
003AB632 2019-04-12 17:25:38 22.9 17 25.1
003AB632 2019-04-12 16:51:35 22.9 17 25.4
003AB632 2019-04-12 16:17:32 22.9 18 25.8
003AB632 2019-04-12 15:43:30 22.7 19 26.4
003AB632 2019-04-12 15:09:28 22.5 19 27.1
003AB632 2019-04-12 14:35:25 22.3 19 25.5
003AB632 2019-04-12 14:01:22 21.9 20 15
003AB632 2019-04-12 13:27:19 21.3 21 12.8
003AB632 2019-04-12 12:53:15 20.6 30 0